Location: Melizzano
(41.1500°N, 14.5000°E)
Time: 22:59:21
(UTC+00:00)

Cosmos 1867 - Pass Details

Date: 11 May 2021
Orbit: 773 x 802 km, 65.0° (Epoch: 24 June)

Event Time Altitude Azimuth Distance (km) Brightness Sun altitude
Exits shadow 23:25:58 43° 308° (NW) 1,105 4.4 -30.4°
Maximum altitude 23:26:01 43° 309° (NW) 1,105 4.4 -30.4°
Drops below altitude 10° 23:31:13 10° 21° (NNE) 2,378 6.9 -30.2°
Sets 23:33:47 0° 28° (NNE) 3,314 7.8 -30.1°
